Zurück zum Katalog

DMSP 5D-2 F13 DEB

AktivSSO
NORAD 40600·DEBRIS·🇺🇸 United States

Gestartet Mar 24, 1995 von Vandenberg Space Force Base

Loading…

Nächste Überflüge (nächste 24 Stunden)

TLE

AktuellSource: Space-Track

Epoche: Sep 12, 2026, 02:15 UTC

1 40600U 95015EX  26255.09426030  .00003851  00000-0  12888-2 0  9990
2 40600  98.8574 304.6372 0036556 129.8867 230.5542 14.37588357588366

Verfolge DMSP 5D-2 F13 DEB in Echtzeit mit AllMySat

Download on the App Store